EW9807 Weather Reports


time (UTC)temp
F
wind
direction
speed
knots
gust
knots
rain 1hr
in
rain 24hr
in
rain mn
in
humidity
%
barometer
mb
20260831010520 79 184 0.0 0.0 0.00 0.00 0.00 81 1017.7
20260831010020 79 184 0.0 0.0 0.00 0.00 0.00 80 1017.7
20260831005521 79 184 0.0 0.0 0.00 0.00 0.00 80 1017.7
20260831005020 79 184 0.0 0.0 0.00 0.00 0.00 80 1017.6
20260831004520 80 184 0.0 0.0 0.00 0.00 0.00 80 1017.6
20260831004021 80 184 0.0 0.0 0.00 0.00 0.00 80 1017.6
20260831003520 80 184 0.0 0.0 0.00 0.00 0.00 80 1017.6
20260831003019 80 184 0.0 0.0 0.00 0.00 0.00 80 1017.5
20260831002519 80 184 0.0 0.0 0.00 0.00 0.00 79 1017.5
20260831002022 81 184 0.0 0.0 0.00 0.00 0.00 78 1017.4
20260831001526 81 184 0.0 0.0 0.00 0.00 0.00 76 1017.4
20260831001019 81 184 0.0 0.0 0.00 0.00 0.00 76 1017.3
20260831000519 82 184 0.0 0.0 0.00 0.00 0.00 76 1017.3
20260831000021 82 184 0.0 0.0 0.00 0.00 0.00 75 1017.2
20260830235517 82 184 0.0 0.0 0.00 0.00 0.00 74 1017.2
20260830235023 82 184 0.0 0.0 0.00 0.00 0.00 73 1017.1
20260830234532 83 184 0.0 0.0 0.00 0.00 0.00 73 1017.1
20260830234018 83 184 0.0 0.0 0.00 0.00 0.00 72 1017.1
20260830233518 83 184 0.0 0.0 0.00 0.00 0.00 70 1017.1
20260830233018 84 184 0.0 0.0 0.00 0.00 0.00 69 1017.0
20260830232518 84 184 0.0 0.0 0.00 0.00 0.00 68 1017.0
20260830232022 84 184 0.0 0.0 0.00 0.00 0.00 68 1017.0
20260830231521 84 184 0.0 0.0 0.00 0.00 0.00 67 1017.0
20260830231018 84 184 0.0 0.0 0.00 0.00 0.00 68 1017.1
20260830230517 85 184 0.0 0.0 0.00 0.00 0.00 67 1017.1
20260830230017 85 184 0.0 0.0 0.00 0.00 0.00 67 1017.0
20260830225516 85 184 0.0 0.0 0.00 0.00 0.00 67 1016.9
20260830225016 85 184 0.0 0.0 0.00 0.00 0.00 66 1017.0
20260830224516 85 184 0.0 0.0 0.00 0.00 0.00 65 1016.9
20260830224016 86 184 0.0 0.0 0.00 0.00 0.00 64 1016.9
20260830223516 86 184 0.0 0.0 0.00 0.00 0.00 65 1017.1
20260830223015 86 184 0.0 0.0 0.00 0.00 0.00 64 1017.0
20260830222515 86 184 0.0 1.7 0.00 0.00 0.00 64 1017.0
20260830222015 86 186 0.0 1.7 0.00 0.00 0.00 65 1017.1
20260830221515 86 186 0.0 2.6 0.00 0.00 0.00 63 1016.9
20260830221014 87 186 0.0 3.5 0.00 0.00 0.00 62 1016.9
20260830220514 87 187 0.9 3.5 0.00 0.00 0.00 60 1016.9
20260830220014 86 109 0.9 3.5 0.00 0.00 0.00 62 1016.9
20260830215513 86 150 0.9 3.5 0.00 0.00 0.00 65 1016.9
20260830215013 84 111 0.0 1.7 0.00 0.00 0.00 68 1017.0
20260830214513 85 110 0.0 0.0 0.00 0.00 0.00 67 1016.9
20260830214013 85 110 0.0 0.9 0.00 0.00 0.00 65 1016.9
20260830213512 86 109 0.0 3.5 0.00 0.00 0.00 65 1017.0
20260830213022 86 109 0.0 4.3 0.00 0.00 0.00 64 1017.1
20260830212511 86 127 0.0 1.7 0.00 0.00 0.00 65 1017.1
20260830212011 86 120 0.9 1.7 0.00 0.00 0.00 65 1017.3
20260830211511 86 124 0.0 3.5 0.00 0.00 0.00 66 1017.3
20260830211011 86 125 1.7 3.5 0.00 0.00 0.00 66 1017.3
20260830210511 85 154 0.0 2.6 0.00 0.00 0.00 68 1017.3
20260830210027 85 152 0.0 2.6 0.00 0.00 0.00 67 1017.3
20260830205510 85 165 0.0 1.7 0.00 0.00 0.00 65 1017.4
20260830205009 85 167 0.0 2.6 0.00 0.00 0.00 65 1017.4
20260830204509 85 162 0.0 2.6 0.00 0.00 0.00 65 1017.4
20260830204008 85 51 0.0 1.7 0.00 0.00 0.00 64 1017.5
20260830203508 86 162 0.9 1.7 0.00 0.00 0.00 65 1017.5
20260830203009 86 164 0.0 5.2 0.00 0.00 0.00 65 1017.6
20260830202509 86 88 0.9 5.2 0.00 0.00 0.00 64 1017.5
20260830202006 86 102 0.9 3.5 0.00 0.00 0.00 65 1017.6
20260830201507 86 166 0.9 3.5 0.00 0.00 0.00 64 1017.7
20260830201005 86 131 0.0 3.5 0.00 0.00 0.00 64 1017.7
20260830200505 86 158 0.9 4.3 0.00 0.00 0.00 63 1017.8
20260830200007 86 101 1.7 4.3 0.00 0.00 0.00 64 1017.9
20260830195504 86 132 0.0 4.3 0.00 0.00 0.00 64 1017.9
20260830195003 86 134 0.9 2.6 0.00 0.00 0.00 64 1018.0
20260830194503 86 115 0.0 2.6 0.00 0.00 0.00 64 1018.1
20260830194003 86 151 0.9 3.5 0.00 0.00 0.00 64 1018.1
20260830193503 87 67 1.7 5.2 0.00 0.00 0.00 64 1018.2
20260830193004 87 108 1.7 5.2 0.00 0.00 0.00 65 1018.2
20260830192502 87 63 0.9 4.3 0.00 0.00 0.00 64 1018.1
20260830192001 87 65 1.7 4.3 0.00 0.00 0.00 64 1018.2
20260830191600 88 127 1.7 3.5 0.00 0.00 0.00 62 1018.3
20260830191103 87 131 0.9 4.3 0.00 0.00 0.00 66 1018.3
20260830190559 87 115 1.7 4.3 0.00 0.00 0.00 65 1018.4
20260830190058 86 300 0.0 4.3 0.00 0.00 0.00 66 1018.5
20260830185600 86 297 0.9 5.2 0.00 0.00 0.00 65 1018.6
20260830185056 86 120 0.9 4.3 0.00 0.00 0.00 67 1018.7
20260830184606 86 259 0.9 4.3 0.00 0.00 0.00 67 1018.6
20260830184058 85 200 1.7 5.2 0.00 0.00 0.00 67 1018.7
20260830183555 86 186 2.6 5.2 0.00 0.00 0.00 66 1018.8
20260830183057 87 128 0.9 4.3 0.00 0.00 0.00 64 1018.9
20260830025030 78 93 0.0 1.7 0.00 0.00 0.00 82 1019.5
20260830024530 78 91 0.0 3.5 0.00 0.00 0.00 82 1019.5
20260830024029 79 93 0.0 3.5 0.00 0.00 0.00 82 1019.5
20260830023530 79 148 0.0 3.5 0.00 0.00 0.00 81 1019.5
20260830023030 79 120 0.0 3.5 0.00 0.00 0.00 81 1019.4
20260830022530 79 126 0.9 3.5 0.00 0.00 0.00 81 1019.3
20260830022029 79 101 0.0 2.6 0.00 0.00 0.00 81 1019.2
20260830021533 79 160 0.0 0.9 0.00 0.00 0.00 81 1019.2
20260830021029 79 127 0.0 1.7 0.00 0.00 0.00 80 1019.0
20260830020529 79 111 0.0 1.7 0.00 0.00 0.00 80 1018.9
20260830020055 79 113 0.0 1.7 0.00 0.00 0.00 81 1018.8
20260830015529 79 113 0.0 1.7 0.00 0.00 0.00 80 1018.7
20260830015028 79 114 0.0 0.9 0.00 0.00 0.00 80 1018.6
20260830014528 79 114 0.0 1.7 0.00 0.00 0.00 80 1018.5
20260830014029 79 114 0.0 1.7 0.00 0.00 0.00 81 1018.5
20260830013528 79 76 0.0 0.9 0.00 0.00 0.00 81 1018.4
20260830013028 79 112 0.0 0.0 0.00 0.00 0.00 82 1018.3
20260830012531 79 112 0.0 0.0 0.00 0.00 0.00 82 1018.2
20260830012029 79 112 0.0 0.0 0.00 0.00 0.00 82 1018.0
20260830011540 79 112 0.0 0.0 0.00 0.00 0.00 82 1018.0
20260830011035 79 112 0.0 0.0 0.00 0.00 0.00 82 1017.9